"Pseudo-MPEC" for P10OD6q

Created 2019 Jun 15 19:08:03 UT using Find_Orb

Click here for an explanation of pseudo-MPECs

 
 Astrometry: 
     P10OD6q  C2019 05 01m0ZlwrG/V/n!!w!h@3,)9cj*:Q0nP)a`yARQ:AstrometryS`JbTF51
     P10OD6q  C2019 05 01L=QM,L:l/SUS8I_=5+%u_'6:ZPev*kn5r;fFK@!$X%cZBx?!MX.nF51
     P10OD6q  C2019 05 12pBD5s(ZgRgY?g^9B=KG+jY$E`]Go+kPSdX4QP@rd9_,(?W)sYA??F51
     P10OD6q  C2019 05 12X@hc^4mlxZ*0TVNnpQRpX[pt/)o(#'HEkaY8S2gpOAL#5B.jN%0OF51
     P10OD6q  C2019 05 12Ps3F!6'I[rdoeq')^w2Z#6ID9N#;8-l1@lf0sjEFredacted;T:1F51
     P10OD6q  C2019 05 26LundL'D*qn*;-2s#KZI6To#dhmchGXSM-H8Z)\d*Ho8Zho+vV3ytF52
     P10OD6q  C2019 05 26UF^xGQuISg]\I!6.I,F*NoiQ3e-\/d@a2\ma_FNC]QxM_HY+,bTuF52
     P10OD6q  C2019 05 26mA;TA36+xVldl_KR`yOwPMJ6O^u[FP19qLGm_^R7:x!-89x%BO0IF52
     P10OD6q  C2019 05 26Sy7uZ7%k*QqRx16P*NX7@click^*LGNP!NO8#c*)/h4@2k0n;DL,F52
     P10OD6q  C2019 06 02ed7](=+Vm,*vxb`\koK%OEkAV-iqQoWYHb@_rgkWdC?Jd?+iHPZiF51
     P10OD6q  C2019 06 02,A2Wr'55;]iW#NOEs,/%3vi,'2TXFDg0v`81O-HrdF9Ks4here5YF51
     P10OD6q  C2019 06 02GfISm[-%(+DI@/.+8;-0%g0r8)rs,M_U,jh2Ls0v5P_w5x8vb=dsF51
     P10OD6q  C2019 06 026b]un04#kAnY-tR=pBG0?\b2XJOvw?ST\6)*F.7_VpFP#c!y0erFF51
     P10OD6q  C2019 06 03.34905 17 04 04.61 +11 04 03.0    ~63BM 21.9 GVNEOCPV06
     P10OD6q  C2019 06 03.35208 17 04 04.43 +11 04 05.1    ~63BM 21.8 GVNEOCPV06
     P10OD6q  C2019 06 03.35510 17 04 04.19 +11 04 07.1    ~63BM 21.7 GVNEOCPV06
     P10OD6q  C2019 06 03.35812 17 04 04.00 +11 04 08.7    ~63BM 21.9 GVNEOCPV06
     P10OD6q  C2019 06 04.34029 17 02 58.41 +11 13 53.4    ~648q 21.1 GVNEOCPV06
     P10OD6q  C2019 06 04.34346 17 02 58.20 +11 13 55.2    ~648q 21.4 GVNEOCPV06
     P10OD6q  C2019 06 04.34663 17 02 57.97 +11 13 57.1    ~648q 21.4 GVNEOCPV06
     P10OD6q  C2019 06 04.34981 17 02 57.75 +11 13 58.9    ~648q 21.2 GVNEOCPV06
     P10OD6q KC2019 06 06M*XQ4UO-.)iD2tD*\6C8,iBcRwb5b5suAaPpo8S86?fZJHpm:W77691
     P10OD6q KC2019 06 06ti47,QH@ywaaMW0?0H/P5jT7:GRK8C(17hbqj)Jhj1ouifDxp3BJ691
     P10OD6q KC2019 06 06J]LVbdybF1ShM$YVO!!:p#6_C4^:Gq=j(Z/'BUlPD@.WP]X+RNbh691
     P10OD6q ^C2019 06 12h,LF#,dtJ/*^M*0q$?N/V,:.5#P#forcexplanation,)c/5'^96695
     P10OD6q ^C2019 06 12`w.xX\]h-aa\prBe1h14Q=q:M-A12Kx@$VVaxdH`s2v^8.Iv1An%695
     P10OD6q ^C2019 06 12nUF%U2PS-.ccob''k4XOf/*@KdE??ExOX(\?7F(,b0$dkIx#RXCa695

Station data:
(691) Steward Observatory, Kitt Peak - Spacewatch  (N31.962174 W111.600327)
   US/Arizona.  Observer J. V. Scotti. 0.9-m f/3 reflector + CCD.
(695) Kitt Peak  (N31.958398 W111.594670)  US/Arizona.
(F51) Pan-STARRS 1, Haleakala  (N20.707235 W156.255910)  US/Hawaii.
   Observers N. Primak, A. Schultz, S. Watters, J. Thiel, T. Goggia. Measurer
   PS1 Science Consortium. 1.8-m Ritchey-Chrétien + CCD.
(F52) Pan-STARRS 2, Haleakala  (N20.707384 W156.255910)  US/Hawaii. 1.8-m
   Ritchey-Chrétien + CCD.
(V06) Catalina Sky Survey-Kuiper  (N32.416847 W110.732550)  US/Arizona.
   Observers T. A. Pruyne, B. M. Africano, E. J. Christensen, G. A. Farneth,
   D. C. Fuls, A. R. Gibbs, A. D. Grauer, H. Groeller, J. A. Johnson, R. A.
   Kowalski, S. M. Larson, G. J. Leonard, R. L. Seaman, F. C. Shelly. 1.55-m
   reflector + CCD.

Orbital elements:  P10OD6q
   Perihelion 2018 Mar 10.704949 +/- 0.0919 TT = 16:55:07 (JD 2458188.204949)
Epoch 2019 Jun 12.0 TT = JDT 2458646.5   Earth MOID: 0.8147   AutoNEOCP
M 172.06039709 +/- 0.038            (J2000 ecliptic)
n   0.37543586 +/- 1.63e-5          Peri.  244.23913 +/- 0.031
a   1.90302961 +/- 5.5e-5           Node   200.22742 +/- 0.0027
e   0.0791369 +/- 1.17e-5           Incl.   21.98848 +/- 0.0013
P   2.63/958.87d           H 19.4   G  0.15   U  5.4  
q 1.75242957 +/- 4.84e-5    Q 2.05362965 +/- 6.97e-5
From 27 observations 2019 May 1-June 12; mean residual 0".15
Residuals in arcseconds: 
190501 F51  .00   .17-    190602 F51  .05+  .28-    190604 V06  .22+  .16-    
190501 F51  .00   .04+    190602 F51  .04+  .01+    190604 V06  .09+  .10-    
190512 F51  .04+  .01-    190602 F51  .15-  .05-    190604 V06  .11+  .15-    
190512 F51  .02-  .13+    190602 F51  .03-  .10-    190606 691  .28+  .07+    
190512 F51  .04-  .08+    190603 V06  .08-  .22-    190606 691  .24-  .02+    
190526 F52  .16+  .36+    190603 V06  .37+  .04+    190606 691  .23-  .01-    
190526 F52  .28-  .19+    190603 V06  .08-  .21+    190612 695  .04-  .04-    
190526 F52  .03-  .23-    190603 V06  .21+  .03-    190612 695  .04+  .21+    
190526 F52  .03-  .05+    190604 V06  .06+  .12-    190612 695  .17-  .08+    

Ephemerides (geocentric):
Date (UTC) HH   RA              Dec         delta   r     elong  mag " sig PA
---- -- -- --  -------------   -----------  ------ ------ -----  --- ---- ---
2019 06 15 19  16 50 24.107   +12 34 06.69  1.1513 2.0528 142.5 22.1 .207  38
2019 06 15 20  16 50 21.488   +12 34 17.35  1.1515 2.0528 142.5 22.1 .208  38
2019 06 15 21  16 50 18.870   +12 34 27.97  1.1516 2.0528 142.5 22.1 .209  38
2019 06 15 22  16 50 16.254   +12 34 38.53  1.1517 2.0528 142.5 22.1 .210  38
2019 06 15 23  16 50 13.639   +12 34 49.04  1.1518 2.0528 142.5 22.1 .211  38
2019 06 16 00  16 50 11.026   +12 34 59.50  1.1520 2.0528 142.4 22.1 .212  38
2019 06 16 01  16 50 08.414   +12 35 09.92  1.1521 2.0528 142.4 22.1 .213  38
2019 06 16 02  16 50 05.804   +12 35 20.28  1.1522 2.0528 142.4 22.1 .214  38
2019 06 16 03  16 50 03.195   +12 35 30.60  1.1523 2.0528 142.4 22.1 .215  38
2019 06 16 04  16 50 00.588   +12 35 40.87  1.1525 2.0528 142.4 22.1 .216  37
2019 06 16 05  16 49 57.982   +12 35 51.08  1.1526 2.0528 142.3 22.1 .217  37
2019 06 16 06  16 49 55.378   +12 36 01.25  1.1527 2.0528 142.3 22.1 .218  37
2019 06 16 07  16 49 52.775   +12 36 11.37  1.1529 2.0528 142.3 22.1 .219  37
2019 06 16 08  16 49 50.174   +12 36 21.44  1.1530 2.0528 142.3 22.1 .220  37
2019 06 16 09  16 49 47.574   +12 36 31.46  1.1531 2.0528 142.3 22.1 .221  37
2019 06 16 10  16 49 44.976   +12 36 41.43  1.1532 2.0529 142.2 22.1 .222  37
2019 06 16 11  16 49 42.379   +12 36 51.35  1.1534 2.0529 142.2 22.1 .223  37
2019 06 16 12  16 49 39.784   +12 37 01.23  1.1535 2.0529 142.2 22.1 .224  37
2019 06 16 13  16 49 37.190   +12 37 11.05  1.1536 2.0529 142.2 22.2 .225  37
2019 06 16 14  16 49 34.598   +12 37 20.83  1.1538 2.0529 142.2 22.2 .226  37
2019 06 16 15  16 49 32.008   +12 37 30.55  1.1539 2.0529 142.1 22.2 .227  37
2019 06 16 16  16 49 29.419   +12 37 40.23  1.1540 2.0529 142.1 22.2 .228  37
2019 06 16 17  16 49 26.832   +12 37 49.86  1.1542 2.0529 142.1 22.2 .229  37
2019 06 16 18  16 49 24.246   +12 37 59.43  1.1543 2.0529 142.1 22.2 .230  37
2019 06 16 19  16 49 21.662   +12 38 08.96  1.1544 2.0529 142.1 22.2 .231  37
2019 06 16 20  16 49 19.079   +12 38 18.44  1.1546 2.0529 142.0 22.2 .232  37
2019 06 16 21  16 49 16.498   +12 38 27.88  1.1547 2.0529 142.0 22.2 .233  37
2019 06 16 22  16 49 13.919   +12 38 37.26  1.1548 2.0529 142.0 22.2 .234  37
2019 06 16 23  16 49 11.341   +12 38 46.59  1.1550 2.0529 142.0 22.2 .235  36
2019 06 17 00  16 49 08.765   +12 38 55.88  1.1551 2.0529 142.0 22.2 .236  36
2019 06 17 01  16 49 06.190   +12 39 05.11  1.1552 2.0529 141.9 22.2 .237  36
2019 06 17 02  16 49 03.617   +12 39 14.30  1.1554 2.0529 141.9 22.2 .238  36
2019 06 17 03  16 49 01.046   +12 39 23.44  1.1555 2.0529 141.9 22.2 .239  36
2019 06 17 04  16 48 58.476   +12 39 32.52  1.1557 2.0529 141.9 22.2 .240  36
2019 06 17 05  16 48 55.908   +12 39 41.56  1.1558 2.0529 141.8 22.2 .241  36
2019 06 17 06  16 48 53.342   +12 39 50.55  1.1559 2.0529 141.8 22.2 .242  36
2019 06 17 07  16 48 50.777   +12 39 59.50  1.1561 2.0529 141.8 22.2 .243  36
2019 06 17 08  16 48 48.214   +12 40 08.39  1.1562 2.0529 141.8 22.2 .244  36
2019 06 17 09  16 48 45.652   +12 40 17.23  1.1563 2.0529 141.8 22.2 .245  36
2019 06 17 10  16 48 43.092   +12 40 26.03  1.1565 2.0529 141.7 22.2 .246  36
2019 06 17 11  16 48 40.534   +12 40 34.77  1.1566 2.0529 141.7 22.2 .247  36
2019 06 17 12  16 48 37.978   +12 40 43.47  1.1568 2.0529 141.7 22.2 .248  36
2019 06 17 13  16 48 35.423   +12 40 52.12  1.1569 2.0530 141.7 22.2 .249  36
2019 06 17 14  16 48 32.870   +12 41 00.72  1.1570 2.0530 141.7 22.2 .250  36
2019 06 17 15  16 48 30.318   +12 41 09.27  1.1572 2.0530 141.6 22.2 .251  36
2019 06 17 16  16 48 27.769   +12 41 17.77  1.1573 2.0530 141.6 22.2 .252  36
2019 06 17 17  16 48 25.221   +12 41 26.23  1.1574 2.0530 141.6 22.2 .253  36
2019 06 17 18  16 48 22.674   +12 41 34.63  1.1576 2.0530 141.6 22.2 .254  36